Simultaneous Nadir Overpasses (SNOs) Predictions

Prediction of SNOs between NOAA-20 and METOP-B Satellite Orbit:

Table of predicted SNOs for the next 14.0 days since TLE Epoch: 12/20/2019
Index Date (NOAA-20) Time (NOAA-20) Lat,Lon (NOAA-20) SZA (NOAA-20 ) Date (METOP-B) Time (METOP-B) Lat,Lon (METOP-B) SZA (METOP-B ) Distance(km) Time Diff (sec)
1 01/03/2020 19:14:31 73.47,-118.43 96.47 01/03/2020 19:15:37 73.42,-115.53 96.28 92.25 66
2 01/03/2020 20:05:13 -73.36, 49.13 83.66 01/03/2020 20:06:21 -73.32, 51.57 83.82 77.94 68
3 01/03/2020 20:55:55 73.17,-143.14 96.13 01/03/2020 20:57:05 73.10,-141.58 95.98 51.00 70




NCC Satellite Simultaneous Nadir Overpasses (SNOs) Prediction Service
